Weather in Novonikolayevsk

Russia / Irkutsk Oblast     53°09′18″N   105°05′57″E
temp.,
°C
wind,
m/s
gust,
m/s
humid.,
%
clouds,
%
prec.,
mm/h
press.,
hPa
HPBL,
m
19 september, sun
sun1923:00+7e226699 0.0 101318
02:00+6e2262100 0.0 101332
05:00+5e22675 0.0 101315
08:00+7e12635 0.0 101364
11:00+16sse354642 0.0 1010540
14:00+19s3342100 0.0 10091049
17:00+19ssw22435 0.0 10081007
20:00+11sw01735 0.0 101010
20 september, mon
mon2023:00+9ese11845 0.0 101010
02:00+8e11915 0.0 100910
05:00+7e11925 0.0 100810
08:00+9ese23845 0.0 100781
11:00+17se46515 0.0 1004592
14:00+21sse57395 0.0 10011261
17:00+20se58465 0.0 10001074
20:00+13ese412719 0.0 1000398
21 september, tue
tue2123:00+9wnw31093100 0.4 1002307
02:00+4nw71590100 1.1 1008606
05:00+3nw51496100 0.4 1013680
08:00+4nw3788100 0.4 1014869
11:00+7nw34585 0.0 10141030
14:00+11nnw22355 0.0 10111539
17:00+11n223440 0.0 10101728
20:00+5ne22576 0.0 101240
22 september, wed
wed2223:00+3ene2269100 0.0 101336
02:00+2ne2279100 0.0 101426
05:00+3ne1273100 0.0 101442
08:00+4ne1166100 0.0 1015104
11:00+9w1247100 0.0 1014989
14:00+11w1140100 0.0 10131903
17:00+9nw3252100 0.0 10141279
20:00+5nw4585100 0.1 1017649
23 september, thu
thu2323:00+2nw3698100 0.4 1020323
02:00+2nw2599100 2.0 1020335
05:00+1nnw3899100 2.8 1022382
08:00+1nw249799 4.4 1023236
11:00+2nw1286100 0.1 1023574
14:00+3w218287 0.2 1023606
17:00+3wsw117955 0.0 1023499
20:00−1w009389 0.0 102510